1507251600.03,43718,12.56,72168.3,-7.25,-8.11,-8.07,0,*5E
1507251601.27,43719,12.56,72196.3,-7.23,-8.03,-8.03,0,*5E
1507251602.51,43720,12.56,72226.0,-7.23,-8.03,-8.03,0,*54
1507251603.76,43721,12.56,72260.0,-7.23,-8.07,-8.03,0,*51
1507251604.99,43722,12.56,72278.3,-7.23,-8.03,-8.03,0,*56
1507251606.21,43723,12.56,72260.5,-7.21,-8.17,-8.17,0,*55
1507251607.41,43724,12.56,72258.0,-7.23,-8.29,-8.29,0,*50
1507251608.59,43725,12.56,72240.3,-7.23,-8.29,-8.33,0,*5A
1507251609.79,43726,12.56,72240.0,-7.23,-8.29,-8.29,0,*52
1507251610.98,43727,12.56,72218.3,-7.23,-8.33,-8.29,0,*58
1507251612.26,43728,12.56,72200.0,-7.21,-8.07,-8.07,0,*5E
1507251613.5,43729,12.56,72198.3,-7.23,-8.07,-8.03,0,*59
1507251614.76,43730,12.56,72194.8,-7.21,-8.03,-8.03,0,*57
1507251616.0,43731,12.56,72216.5,-7.23,-8.03,-8.03,0,*54
1507251617.22,43732,12.56,72194.5,-7.21,-8.17,-8.17,0,*55
1507251618.49,43733,12.56,72208.5,-7.21,-8.07,-8.03,0,*50
1507251619.75,43734,12.56,72152.0,-7.21,-8.03,-8.03,0,*53
1507251621.02,43735,12.56,72218.8,-7.21,-7.99,-7.99,0,*52
1507251622.29,43736,12.56,72204.8,-7.21,-7.99,-8.03,0,*5D
1507251623.53,43737,12.56,72180.5,-7.21,-7.87,-7.91,0,*57
1507251624.76,43738,12.56,72178.8,-7.17,-7.83,-7.87,0,*5E
1507251625.99,43739,12.56,72240.5,-7.17,-7.87,-7.83,0,*5F
1507251627.26,43740,12.56,72210.3,-7.17,-7.95,-7.99,0,*59
1507251628.51,43741,12.56,72214.3,-7.17,-8.11,-8.17,0,*52
1507251629.73,43742,12.56,72220.0,-7.17,-8.25,-8.25,0,*57
1507251630.93,43743,12.56,72214.0,-7.15,-8.41,-8.37,0,*55
1507251632.15,43744,12.56,72216.8,-7.21,-8.55,-8.59,0,*58
1507251633.37,43745,12.56,72226.8,-7.21,-8.55,-8.45,0,*54
1507251634.59,43746,12.56,72136.3,-7.21,-8.59,-8.55,0,*5A
1507251635.78,43747,12.56,72128.8,-7.23,-8.59,-8.59,0,*55
1507251637.01,43748,12.56,72144.3,-7.21,-8.85,-8.85,0,*58
1507251638.22,43749,12.56,72128.8,-7.21,-8.67,-8.71,0,*5E
1507251639.46,43750,12.56,72128.8,-7.23,-8.81,-8.81,0,*53
1507251640.71,43751,12.56,72112.5,-7.21,-8.81,-8.85,0,*54
1507251641.92,43752,12.56,72132.3,-7.23,-8.85,-8.85,0,*51
1507251643.12,43753,12.56,72140.5,-7.23,-8.85,-8.85,0,*50
1507251644.33,43754,12.56,72114.5,-7.23,-8.85,-8.85,0,*57
1507251645.53,43755,12.56,72120.3,-7.23,-8.45,-8.41,0,*52
1507251646.75,43756,12.56,72134.8,-7.27,-8.25,-8.25,0,*51
1507251648.0,43757,12.56,72196.0,-7.25,-8.11,-8.11,0,*52
1507251649.2,43758,12.56,72176.3,-7.25,-8.45,-8.45,0,*5D
1507251650.4,43759,12.56,72140.8,-7.25,-8.75,-8.85,0,*53
1507251651.59,43760,12.56,72128.5,-7.25,-8.59,-8.59,0,*56
1507251652.84,43761,12.56,72148.3,-7.25,-8.11,-8.11,0,*57
1507251654.1,43762,12.56,72176.8,-7.25,-8.11,-8.07,0,*53
1507251655.35,43763,12.56,72164.5,-7.25,-8.07,-8.03,0,*51
1507251656.6,43764,12.56,72194.0,-7.23,-8.07,-8.07,0,*54
1507251657.86,43765,12.56,72170.3,-7.23,-8.07,-8.07,0,*55
1507251659.11,43766,12.56,72136.5,-7.23,-7.99,-7.99,0,*56
1507251660.37,43767,12.56,72098.3,-7.21,-8.03,-8.03,0,*55
1507251661.64,43768,12.56,72138.8,-7.21,-7.99,-7.99,0,*5A
1507251662.88,43769,12.56,72218.8,-7.21,-7.91,-7.87,0,*5C
1507251664.13,43770,12.56,72182.0,-7.23,-7.91,-7.91,0,*51
1507251665.39,43771,12.56,72194.8,-7.21,-7.91,-7.91,0,*52
1507251666.66,43772,12.56,72190.5,-7.21,-7.99,-8.03,0,*5D
1507251667.91,43773,12.56,72244.8,-7.21,-8.17,-8.07,0,*51
1507251669.13,43774,12.56,72258.3,-7.17,-8.17,-8.17,0,*52
1507251670.35,43775,12.56,72216.5,-7.21,-8.29,-8.33,0,*5D
1507251671.62,43776,12.56,72184.0,-7.17,-8.51,-8.51,0,*50
1507251672.84,43777,12.56,72174.3,-7.21,-8.59,-8.59,0,*54
1507251674.03,43778,12.56,72168.0,-7.23,-8.45,-8.55,0,*58
1507251675.25,43779,12.56,72184.3,-7.21,-8.45,-8.45,0,*5A
1507251676.46,43780,12.56,72168.0,-7.21,-8.55,-8.55,0,*5C
1507251677.68,43781,12.56,72128.0,-7.21,-8.29,-8.33,0,*56
1507251678.91,43782,12.56,72128.8,-7.23,-8.17,-8.07,0,*5D
1507251680.19,43783,12.56,72218.5,-7.21,-8.07,-8.07,0,*5F
1507251681.43,43784,12.56,72164.3,-7.21,-8.07,-8.17,0,*59
1507251682.66,43785,12.56,72120.8,-7.23,-8.71,-8.81,0,*54
1507251683.86,43786,12.56,72158.5,-7.23,-8.93,-8.85,0,*5F
1507251685.11,43787,12.56,72146.0,-7.23,-9.41,-9.61,0,*5B
1507251686.36,43788,12.56,72176.3,-7.23,-9.15,-9.15,0,*56
1507251687.57,43789,12.56,72178.5,-7.25,-9.05,-9.05,0,*51
1507251688.77,43790,12.56,72184.3,-7.25,-8.89,-8.97,0,*56
1507251689.97,43791,12.56,72182.8,-7.25,-8.97,-9.01,0,*56
1507251691.2,43792,12.56,72148.8,-7.25,-9.15,-9.19,0,*57
1507251692.43,43793,12.5,72174.5,-7.25,-9.15,-9.05,0,*5B
1507251693.71,43794,12.56,72200.0,-7.27,-9.15,-9.15,0,*5F
1507251694.93,43795,12.56,72174.8,-7.27,-8.75,-8.75,0,*5E
1507251696.13,43796,12.56,72184.3,-7.29,-9.01,-9.01,0,*53
1507251697.32,43797,12.56,72182.8,-7.29,-8.67,-8.67,0,*52
1507251698.53,43798,12.56,72192.5,-7.31,-8.67,-8.71,0,*53
1507251699.72,43799,12.56,72238.8,-7.29,-8.63,-8.67,0,*58
1507251700.91,43800,12.56,72190.3,-7.29,-8.89,-8.75,0,*50
1507251702.11,43801,12.56,72238.3,-7.29,-8.97,-8.93,0,*56
1507251703.35,43802,12.56,72222.5,-7.31,-8.81,-8.85,0,*5C
1507251704.54,43803,12.56,72184.3,-7.29,-8.67,-8.71,0,*57
1507251705.72,43804,12.56,72176.8,-7.29,-8.67,-8.67,0,*57
1507251706.94,43805,12.56,72202.0,-7.31,-8.71,-8.67,0,*58
1507251708.17,43806,12.56,72202.3,-7.31,-8.71,-8.71,0,*5C
1507251709.35,43807,12.56,72176.3,-7.29,-8.67,-8.67,0,*54
1507251710.56,43808,12.56,72216.0,-7.31,-8.67,-8.59,0,*5F
1507251711.75,43809,12.56,72240.8,-7.29,-8.55,-8.55,0,*5A
1507251712.97,43810,12.56,72162.3,-7.29,-8.51,-8.41,0,*53
1507251714.21,43811,12.56,72140.5,-7.29,-8.51,-8.51,0,*53
1507251715.43,43812,12.56,72162.5,-7.29,-8.51,-8.41,0,*51
1507251716.68,43813,12.56,72218.3,-7.29,-8.51,-8.51,0,*51
1507251717.92,43814,12.56,72210.3,-7.31,-8.81,-8.71,0,*50
1507251719.14,43815,12.56,72128.5,-7.31,-8.71,-8.71,0,*5E
1507251720.33,43816,12.56,72126.5,-7.29,-8.41,-8.41,0,*54
1507251721.53,43817,12.56,72148.0,-7.29,-8.41,-8.37,0,*54
1507251722.75,43818,12.56,72172.5,-7.31,-8.29,-8.29,0,*53
1507251723.94,43819,12.56,72160.8,-7.29,-8.17,-8.17,0,*5B
1507251725.18,43820,12.56,72184.5,-7.29,-7.99,-8.07,0,*59
1507251726.43,43821,12.56,72172.3,-7.29,-8.11,-8.11,0,*50
1507251727.65,43822,12.56,72210.5,-7.27,-8.33,-8.25,0,*5A
1507251728.92,43823,12.56,72216.5,-7.27,-8.11,-8.03,0,*5F
1507251730.13,43824,12.56,72198.0,-7.27,-8.33,-8.25,0,*5C
1507251731.38,43825,12.56,72236.0,-7.27,-8.21,-8.11,0,*59
1507251732.65,43826,12.56,72180.8,-7.27,-8.07,-8.11,0,*5E
1507251733.87,43827,12.56,72188.0,-7.27,-8.21,-8.21,0,*58
1507251735.09,43828,12.56,72138.8,-7.27,-8.37,-8.33,0,*53
1507251736.32,43829,12.56,72140.3,-7.27,-8.45,-8.37,0,*53
1507251737.57,43830,12.56,72142.0,-7.27,-8.51,-8.45,0,*5B
1507251738.79,43831,12.56,72164.3,-7.29,-8.55,-8.51,0,*55
1507251739.98,43832,12.56,72120.8,-7.29,-8.41,-8.41,0,*52
1507251741.18,43833,12.56,72054.3,-7.29,-8.29,-8.37,0,*5C
1507251742.4,43834,12.56,72060.8,-7.29,-8.51,-8.41,0,*55
1507251743.59,43835,12.56,72090.5,-7.29,-8.29,-8.37,0,*5A
1507251744.81,43836,12.56,72126.5,-7.29,-8.17,-8.11,0,*50
1507251746.08,43837,12.56,72138.0,-7.27,-8.11,-8.11,0,*59
1507251747.33,43838,12.56,72162.5,-7.25,-8.03,-7.91,0,*50
1507251748.57,43839,12.56,72164.5,-7.25,-7.91,-7.91,0,*55
1507251749.81,43840,12.56,72150.8,-7.25,-7.91,-7.95,0,*5F
1507251751.06,43841,12.56,72200.0,-7.25,-7.91,-7.91,0,*5A
1507251752.3,43842,12.56,72236.3,-7.25,-7.91,-7.95,0,*5D
1507251753.5,43843,12.56,72220.0,-7.25,-8.25,-8.25,0,*58
1507251754.69,43844,12.56,72262.5,-7.25,-8.33,-8.25,0,*58
1507251755.88,43845,12.56,72256.0,-7.25,-8.25,-8.33,0,*59
1507251757.07,43846,12.56,72226.0,-7.25,-8.33,-8.33,0,*5D
1507251758.32,43847,12.56,72252.3,-7.25,-8.11,-8.07,0,*5B
1507251759.6,43848,12.56,72254.3,-7.27,-8.07,-8.03,0,*55
1507251760.85,43849,12.56,72256.0,-7.25,-8.07,-8.07,0,*52
1507251762.1,43850,12.56,72270.5,-7.25,-8.07,-8.03,0,*5E
1507251763.36,43851,12.56,72226.0,-7.25,-8.07,-8.07,0,*5B
1507251764.55,43852,12.56,72230.5,-7.23,-8.33,-8.41,0,*5B
1507251765.74,43853,12.56,72216.8,-7.23,-8.59,-8.55,0,*53
1507251766.97,43854,12.5,72208.8,-7.23,-8.81,-8.81,0,*58
1507251768.18,43855,12.56,72238.8,-7.25,-9.01,-9.01,0,*5F
1507251769.41,43856,12.56,72240.8,-7.27,-8.97,-9.01,0,*50
1507251770.63,43857,12.56,72236.5,-7.27,-8.75,-8.75,0,*5F
1507251771.85,43858,12.56,72290.0,-7.27,-8.63,-8.63,0,*50
1507251773.07,43859,12.56,72276.0,-7.27,-8.63,-8.63,0,*51
1507251774.32,43860,12.56,72246.3,-7.27,-8.51,-8.45,0,*5E
1507251775.59,43861,12.56,72280.8,-7.27,-8.11,-8.11,0,*5A
1507251776.86,43862,12.56,72232.5,-7.27,-8.03,-8.03,0,*59
1507251778.12,43863,12.5,72256.3,-7.25,-8.11,-8.07,0,*5D
1507251779.4,43864,12.56,72280.3,-7.27,-8.07,-8.07,0,*5F
1507251780.65,43865,12.56,72276.8,-7.25,-8.11,-8.11,0,*5C
1507251781.9,43866,12.56,72310.0,-7.25,-8.11,-8.11,0,*5F
1507251783.15,43867,12.56,72294.8,-7.25,-8.11,-8.11,0,*5E
1507251784.35,43868,12.56,72304.0,-7.25,-8.45,-8.45,0,*51
1507251785.54,43869,12.5,72274.8,-7.25,-8.33,-8.33,0,*50
1507251786.79,43870,12.5,72300.0,-7.25,-8.11,-8.11,0,*58
1507251788.05,43871,12.56,72296.5,-7.25,-8.11,-8.07,0,*5E
1507251789.24,43872,12.56,72296.3,-7.25,-8.21,-8.21,0,*5A
1507251790.43,43873,12.5,72272.0,-7.25,-8.33,-8.33,0,*5B
1507251791.64,43874,12.56,72224.5,-7.27,-8.33,-8.33,0,*5E
1507251792.83,43875,12.56,72262.8,-7.25,-8.33,-8.33,0,*5D
1507251794.02,43876,12.56,72246.3,-7.25,-8.59,-8.59,0,*5E
1507251795.25,43877,12.56,72182.5,-7.27,-8.75,-8.85,0,*52
1507251796.47,43878,12.5,72116.3,-7.27,-8.97,-9.05,0,*58
1507251797.66,43879,12.56,72098.3,-7.25,-8.59,-8.63,0,*58
1507251798.86,43880,12.56,72044.8,-7.25,-8.45,-8.37,0,*52
1507251800.14,43881,12.56,72136.8,-7.27,-8.11,-8.11,0,*54
1507251801.39,43882,12.56,72142.0,-7.25,-8.11,-8.11,0,*55
1507251802.59,43883,12.56,72148.5,-7.25,-8.21,-8.21,0,*54
1507251803.79,43884,12.56,72156.5,-7.25,-8.37,-8.45,0,*56
1507251805.0,43885,12.56,72166.8,-7.25,-8.71,-8.85,0,*59
1507251806.2,43886,12.5,72094.0,-7.25,-8.71,-8.71,0,*51
1507251807.47,43887,12.56,72112.3,-7.27,-8.11,-8.11,0,*52
1507251808.75,43888,12.56,72114.5,-7.27,-8.03,-8.07,0,*59
1507251809.99,43889,12.5,72122.5,-7.27,-7.83,-7.91,0,*5F
1507251811.22,43890,12.5,72136.5,-7.25,-7.83,-7.91,0,*55
1507251812.46,43891,12.5,72190.5,-7.25,-7.91,-7.95,0,*53
1507251813.68,43892,12.56,72198.5,-7.23,-7.87,-7.91,0,*55
1507251814.92,43893,12.56,72208.0,-7.23,-7.99,-8.03,0,*5F
1507251816.11,43894,12.56,72206.3,-7.23,-8.41,-8.33,0,*51
1507251817.31,43895,12.56,72232.3,-7.23,-8.41,-8.45,0,*51
1507251818.51,43896,12.56,72120.0,-7.23,-8.55,-8.55,0,*56
1507251819.69,43897,12.56,72168.5,-7.23,-8.67,-8.67,0,*57
1507251820.89,43898,12.56,72136.5,-7.25,-8.59,-8.63,0,*57
1507251822.11,43899,12.56,72146.3,-7.25,-8.45,-8.51,0,*5A
1507251823.36,43900,12.56,72142.3,-7.25,-8.11,-8.11,0,*5E
1507251824.63,43901,12.56,72190.8,-7.27,-8.03,-8.03,0,*5D
1507251825.88,43902,12.5,72256.3,-7.25,-8.07,-8.11,0,*5B
1507251827.07,43903,12.56,72264.3,-7.25,-8.33,-8.37,0,*59
1507251828.28,43904,12.5,72276.0,-7.25,-8.37,-8.45,0,*5F
1507251829.48,43905,12.5,72236.3,-7.25,-8.37,-8.45,0,*5E
1507251830.67,43906,12.56,72204.3,-7.25,-8.63,-8.63,0,*58
1507251831.86,43907,12.5,72234.5,-7.25,-8.33,-8.33,0,*59
1507251833.12,43908,12.5,72214.5,-7.25,-8.11,-8.07,0,*51
1507251834.36,43909,12.56,72270.8,-7.25,-8.07,-8.03,0,*53
1507251835.62,43910,12.56,72280.8,-7.25,-8.07,-8.07,0,*5F
1507251836.82,43911,12.56,72272.0,-7.25,-8.21,-8.21,0,*5E
1507251838.01,43912,12.56,72246.3,-7.25,-8.21,-8.21,0,*5D
1507251839.21,43913,12.5,72240.3,-7.23,-8.45,-8.55,0,*5B
1507251840.4,43914,12.56,72224.3,-7.23,-8.33,-8.41,0,*58
1507251841.62,43915,12.5,72224.5,-7.21,-8.41,-8.41,0,*5E
1507251842.84,43916,12.5,72226.8,-7.25,-8.45,-8.51,0,*5C
1507251844.04,43917,12.56,72240.3,-7.25,-8.37,-8.37,0,*58
1507251845.24,43918,12.56,72230.3,-7.25,-8.21,-8.25,0,*53
1507251846.44,43919,12.56,72230.3,-7.25,-8.21,-8.21,0,*56
1507251847.68,43920,12.5,72218.5,-7.23,-8.07,-8.03,0,*5E
1507251848.92,43921,12.5,72200.3,-7.23,-8.03,-7.99,0,*57
1507251850.19,43922,12.56,72184.8,-7.21,-7.99,-7.99,0,*5A
1507251851.44,43923,12.5,72250.3,-7.23,-7.99,-7.91,0,*51
1507251852.68,43924,12.5,72262.5,-7.23,-8.03,-7.99,0,*52
1507251853.94,43925,12.56,72242.5,-7.21,-8.03,-8.03,0,*5D
1507251855.14,43926,12.5,72236.5,-7.23,-8.17,-8.21,0,*59
1507251856.35,43927,12.5,72176.0,-7.21,-8.33,-8.33,0,*5F
1507251857.63,43928,12.56,72178.0,-7.21,-8.07,-8.07,0,*50
1507251858.88,43929,12.5,72204.3,-7.23,-8.03,-8.07,0,*57
1507251860.15,43930,12.56,72184.8,-7.21,-7.99,-7.99,0,*59
1507251861.39,43931,12.5,72214.0,-7.21,-7.87,-7.91,0,*5F
1507251862.66,43932,12.5,72206.0,-7.21,-7.91,-7.91,0,*5B
1507251863.9,43933,12.56,72236.3,-7.21,-7.87,-7.91,0,*5D
1507251865.13,43934,12.56,72266.0,-7.21,-7.87,-7.87,0,*5D
1507251866.35,43935,12.56,72242.0,-7.21,-7.87,-7.87,0,*5C
1507251867.57,43936,12.56,72256.3,-7.21,-7.87,-7.87,0,*5F
1507251868.8,43937,12.5,72276.3,-7.17,-7.87,-7.83,0,*5F
1507251870.04,43938,12.56,72238.5,-7.15,-7.95,-7.95,0,*56
1507251871.31,43939,12.5,72256.5,-7.17,-8.03,-8.03,0,*55
1507251872.58,43940,12.5,72242.8,-7.17,-7.99,-7.95,0,*57
1507251873.8,43941,12.56,72236.8,-7.15,-7.95,-7.87,0,*5B
1507251875.07,43942,12.56,72228.0,-7.17,-8.03,-8.11,0,*5A
1507251876.29,43943,12.5,72188.8,-7.17,-8.29,-8.29,0,*58
1507251877.51,43944,12.5,72168.0,-7.17,-8.17,-8.25,0,*5E
1507251878.74,43945,12.5,72148.0,-7.17,-8.37,-8.37,0,*5E
1507251879.96,43946,12.5,72144.3,-7.17,-8.67,-8.55,0,*5C
1507251881.17,43947,12.5,72166.8,-7.17,-8.75,-8.75,0,*5C
1507251882.39,43948,12.5,72162.0,-7.17,-8.67,-8.67,0,*53
1507251883.61,43949,12.5,72156.5,-7.21,-8.71,-8.67,0,*50
1507251884.8,43950,12.5,72162.0,-7.23,-8.55,-8.55,0,*5D
1507251885.99,43951,12.5,72148.5,-7.23,-8.55,-8.55,0,*5C
1507251887.18,43952,12.56,72182.8,-7.23,-8.67,-8.67,0,*5F
1507251888.4,43953,12.5,72172.8,-7.23,-8.85,-8.81,0,*5A
1507251889.61,43954,12.56,72166.5,-7.23,-8.85,-8.85,0,*59
1507251890.82,43955,12.5,72192.5,-7.23,-8.85,-8.85,0,*58
1507251892.02,43956,12.5,72192.8,-7.25,-8.85,-8.75,0,*52
1507251893.27,43957,12.5,72196.0,-7.25,-8.51,-8.51,0,*5C
1507251894.47,43958,12.5,72190.5,-7.25,-8.37,-8.37,0,*53
1507251895.67,43959,12.5,72188.0,-7.25,-8.37,-8.45,0,*57
1507251896.92,43960,12.5,72172.0,-7.25,-8.51,-8.51,0,*58
1507251898.17,43961,12.5,72182.5,-7.25,-8.51,-8.51,0,*59
1507251899.45,43962,12.56,72192.8,-7.27,-8.51,-8.51,0,*58
1507251900.65,43963,12.56,72216.8,-7.25,-8.45,-8.37,0,*5E
1507251901.84,43964,12.5,72210.8,-7.25,-8.25,-8.33,0,*5B
1507251903.04,43965,12.56,72212.0,-7.25,-8.37,-8.33,0,*59
1507251904.24,43966,12.5,72202.3,-7.25,-8.25,-8.25,0,*5E
1507251905.42,43967,12.5,72186.0,-7.25,-8.33,-8.33,0,*5F
1507251906.62,43968,12.5,72178.0,-7.25,-8.33,-8.37,0,*54
1507251907.81,43969,12.5,72172.5,-7.23,-8.29,-8.29,0,*57
1507251909.0,43970,12.5,72154.3,-7.25,-8.33,-8.33,0,*59
1507251910.19,43971,12.5,72166.5,-7.25,-8.21,-8.25,0,*5C
1507251911.39,43972,12.5,72148.8,-7.25,-8.33,-8.37,0,*5F
1507251912.58,43973,12.5,72156.0,-7.23,-8.29,-8.33,0,*57
1507251913.77,43974,12.5,72150.0,-7.23,-8.41,-8.33,0,*5E
1507251914.96,43975,12.5,72162.8,-7.23,-8.29,-8.29,0,*5A
1507251916.16,43976,12.5,72168.8,-7.25,-8.33,-8.45,0,*5E
1507251917.38,43977,12.5,72186.3,-7.25,-8.37,-8.51,0,*5E
1507251918.58,43978,12.56,72212.0,-7.25,-8.25,-8.21,0,*55
1507251919.81,43979,12.56,72224.5,-7.25,-8.11,-8.21,0,*53
1507251921.06,43980,12.5,72262.0,-7.25,-8.11,-8.11,0,*56
1507251922.31,43981,12.5,72242.8,-7.25,-8.11,-8.11,0,*57
1507251923.56,43982,12.5,72218.5,-7.25,-8.11,-8.11,0,*54
1507251924.81,43983,12.5,72212.5,-7.25,-8.11,-8.11,0,*55
1507251926.05,43984,12.5,72210.0,-7.25,-7.95,-7.95,0,*52
1507251927.32,43985,12.5,72204.5,-7.21,-7.99,-7.99,0,*57
1507251928.57,43986,12.5,72208.0,-7.23,-7.99,-7.91,0,*5E
1507251929.81,43987,12.5,72220.0,-7.23,-7.91,-7.91,0,*57
1507251931.06,43988,12.5,72234.3,-7.23,-7.99,-7.91,0,*50
1507251932.33,43989,12.5,72220.0,-7.21,-7.91,-7.91,0,*5B
1507251933.57,43990,12.5,72220.5,-7.23,-7.91,-7.91,0,*51
1507251934.81,43991,12.5,72256.0,-7.23,-7.91,-7.91,0,*50
1507251936.06,43992,12.56,72264.0,-7.21,-7.87,-7.91,0,*56
1507251937.28,43993,12.5,72254.8,-7.21,-7.87,-7.87,0,*50
1507251938.53,43994,12.5,72212.3,-7.21,-7.91,-7.87,0,*50
1507251939.77,43995,12.5,72232.5,-7.21,-7.91,-7.87,0,*51
1507251941.02,43996,12.5,72216.0,-7.21,-7.77,-7.87,0,*5A
1507251942.22,43997,12.5,72230.5,-7.15,-7.83,-7.87,0,*57
1507251943.45,43998,12.5,72204.8,-7.17,-7.83,-7.87,0,*5A
1507251944.69,43999,12.5,72184.3,-7.21,-7.87,-7.77,0,*55
1507251945.96,44000,12.5,72182.5,-7.21,-7.77,-7.73,0,*50
1507251947.25,44001,12.5,72174.8,-7.17,-7.73,-7.73,0,*50
1507251948.5,44002,12.5,72176.5,-7.15,-7.73,-7.73,0,*51
1507251949.78,44003,12.5,72174.8,-7.17,-7.73,-7.73,0,*52
1507251951.04,44004,12.5,72180.5,-7.17,-7.73,-7.83,0,*5A
1507251952.24,44005,12.5,72186.5,-7.15,-7.83,-7.87,0,*52
1507251953.44,44006,12.5,72194.0,-7.15,-7.83,-7.87,0,*51
1507251954.71,44007,12.5,72200.8,-7.17,-7.95,-7.95,0,*56
1507251955.95,44008,12.5,72198.3,-7.15,-7.99,-7.99,0,*5B
1507251957.2,44009,12.56,72188.5,-7.15,-8.11,-8.03,0,*59
1507251958.43,44010,12.56,72186.5,-7.15,-8.03,-8.03,0,*52
1507251959.68,44011,12.5,72194.3,-7.15,-7.95,-7.99,0,*5F
1507251960.92,44012,12.5,72212.8,-7.15,-7.95,-7.95,0,*50
1507251962.14,44013,12.5,72224.5,-7.15,-8.17,-8.11,0,*57
1507251963.42,44014,12.5,72206.5,-7.17,-8.51,-8.51,0,*54
1507251964.64,44015,12.5,72208.3,-7.17,-8.67,-8.63,0,*51
1507251965.86,44016,12.5,72196.0,-7.17,-8.75,-8.75,0,*56
1507251967.09,44017,12.5,72188.8,-7.17,-8.93,-8.93,0,*57
1507251968.3,44018,12.5,72232.5,-7.17,-8.75,-8.75,0,*58
1507251969.58,44019,12.5,72128.3,-7.21,-9.11,-9.11,0,*5C
1507251970.86,44020,12.5,72138.8,-7.21,-9.41,-9.49,0,*5E
1507251972.06,44021,12.5,72148.5,-7.23,-8.85,-8.85,0,*55
1507251973.31,44022,12.5,72234.0,-7.21,-8.97,-9.11,0,*5B
1507251974.53,44023,12.5,72238.3,-7.23,-8.81,-8.85,0,*53
1507251975.74,44024,12.5,72240.0,-7.23,-8.93,-8.93,0,*50
1507251976.93,44025,12.5,72196.8,-7.23,-8.71,-8.67,0,*56
1507251978.12,44026,12.5,72174.3,-7.25,-8.75,-8.75,0,*54
1507251979.32,44027,12.5,72178.5,-7.25,-8.71,-8.63,0,*56
1507251980.54,44028,12.5,72194.0,-7.27,-8.75,-8.71,0,*5C
1507251981.74,44029,12.5,72216.3,-7.25,-8.71,-8.75,0,*5F
1507251982.94,44030,12.5,72210.8,-7.25,-8.71,-8.75,0,*57
1507251984.17,44031,12.5,72244.5,-7.25,-9.31,-9.41,0,*55
1507251985.41,44032,12.5,72218.5,-7.27,-9.57,-9.67,0,*50
1507251986.63,44033,12.5,72194.5,-7.27,-8.89,-8.97,0,*5D
1507251987.85,44034,12.5,72174.0,-7.27,-8.63,-8.59,0,*5C
1507251989.09,44035,12.5,72148.0,-7.27,-8.85,-8.85,0,*54
1507251990.29,44036,12.5,72138.8,-7.29,-8.89,-8.89,0,*59
1507251991.47,44037,12.5,72172.5,-7.29,-8.41,-8.55,0,*5D
1507251992.66,44038,12.5,72164.5,-7.29,-8.29,-8.29,0,*57
1507251993.85,44039,12.5,72164.8,-7.29,-8.25,-8.29,0,*5A
1507251995.08,44040,12.5,72150.8,-7.31,-8.55,-8.45,0,*50
1507251996.26,44041,12.5,72144.8,-7.29,-8.29,-8.29,0,*59
1507251997.46,44042,12.5,72168.3,-7.29,-8.25,-8.17,0,*5B
1507251998.73,44043,12.5,72216.0,-7.27,-8.11,-8.11,0,*55
1507251999.95,44044,12.5,72192.0,-7.27,-8.33,-8.25,0,*55
1507252001.19,44045,12.5,72194.5,-7.27,-8.21,-8.11,0,*50
1507252002.41,44046,12.5,72200.5,-7.27,-8.25,-8.25,0,*50
1507252003.69,44047,12.5,72206.5,-7.27,-8.51,-8.51,0,*51
1507252004.93,44048,12.5,72232.3,-7.27,-8.59,-8.51,0,*56
1507252006.18,44049,12.5,72196.0,-7.27,-8.51,-8.59,0,*57
1507252007.39,44050,12.5,72164.0,-7.27,-8.59,-8.59,0,*57
1507252008.61,44051,12.5,72178.5,-7.27,-8.59,-8.59,0,*56
1507252009.8,44052,12.5,72166.5,-7.29,-8.75,-8.75,0,*5B
1507252010.99,44053,12.5,72162.3,-7.29,-8.75,-8.85,0,*55
1507252012.19,44054,12.56,72206.8,-7.29,-8.89,-8.89,0,*5D
1507252013.42,44055,12.5,72162.3,-7.31,-8.93,-9.05,0,*5B
1507252014.67,44056,12.5,72120.8,-7.31,-9.11,-9.23,0,*57
1507252015.92,44057,12.5,72126.3,-7.31,-9.41,-9.67,0,*53
1507252017.15,44058,12.5,72176.0,-7.31,-9.75,-9.79,0,*54
1507252018.4,44059,12.5,72182.0,-7.31,-9.67,-9.53,0,*5E
1507252019.62,44060,12.5,72160.5,-7.31,-9.27,-9.23,0,*57
1507252020.84,44061,12.5,72154.5,-7.31,-8.97,-8.97,0,*52
1507252022.04,44062,12.5,72120.3,-7.33,-8.93,-8.93,0,*53
1507252023.25,44063,12.5,72172.5,-7.33,-8.93,-8.93,0,*52
1507252024.47,44064,12.5,72176.0,-7.33,-8.93,-8.81,0,*56
1507252025.73,44065,12.5,72154.0,-7.33,-9.11,-9.11,0,*54
1507252026.93,44066,12.5,72178.0,-7.33,-8.97,-8.97,0,*57
1507252028.16,44067,12.5,72240.0,-7.35,-8.89,-8.89,0,*50
1507252029.36,44068,12.5,72174.5,-7.33,-8.71,-8.71,0,*59
1507252030.58,44069,12.5,72132.3,-7.33,-8.81,-8.71,0,*57
1507252031.8,44070,12.5,72150.3,-7.33,-8.81,-8.93,0,*53
1507252033.02,44071,12.5,72162.5,-7.35,-8.75,-8.75,0,*57
1507252034.21,44072,12.5,72216.8,-7.33,-8.59,-8.67,0,*5F
1507252035.43,44073,12.5,72184.8,-7.35,-8.59,-8.59,0,*55
1507252036.67,44074,12.5,72124.3,-7.35,-8.85,-8.85,0,*52
1507252037.9,44075,12.5,72166.3,-7.35,-8.89,-8.85,0,*5F
1507252039.12,44076,12.5,72176.0,-7.35,-8.59,-8.63,0,*59
1507252040.38,44077,12.5,72190.5,-7.35,-8.51,-8.45,0,*54
1507252041.61,44078,12.5,72148.5,-7.35,-8.45,-8.37,0,*5B
1507252042.8,44079,12.5,72124.5,-7.33,-8.33,-8.41,0,*5C
1507252044.03,44080,12.5,72142.5,-7.35,-8.33,-8.37,0,*5D
1507252045.25,44081,12.5,72164.5,-7.35,-8.25,-8.25,0,*58
1507252046.45,44082,12.5,72190.0,-7.33,-8.17,-8.17,0,*5D
1507252047.7,44083,12.5,72222.0,-7.33,-8.11,-7.99,0,*53
1507252048.95,44084,12.5,72218.5,-7.31,-8.17,-8.11,0,*5F
1507252050.17,44085,12.5,72216.3,-7.31,-8.21,-8.21,0,*58
1507252051.39,44086,12.5,72220.5,-7.31,-8.21,-8.21,0,*5B
1507252052.58,44087,12.56,72208.3,-7.33,-8.21,-8.29,0,*50
1507252053.79,44088,12.5,72214.0,-7.31,-8.33,-8.33,0,*55
1507252055.07,44089,12.5,72188.0,-7.31,-8.11,-8.11,0,*54
1507252056.32,44090,12.5,72120.0,-7.31,-8.11,-8.17,0,*5A
1507252057.54,44091,12.56,72168.5,-7.31,-8.17,-8.17,0,*5D
1507252058.78,44092,12.5,72178.5,-7.29,-7.99,-7.99,0,*57
1507252060.04,44093,12.5,72244.8,-7.31,-8.03,-8.03,0,*5F
1507252061.28,44094,12.5,72268.5,-7.29,-7.99,-7.99,0,*51
1507252062.53,44095,12.5,72290.0,-7.29,-8.07,-8.07,0,*50
1507252063.72,44096,12.5,72240.5,-7.29,-8.29,-8.29,0,*53
1507252064.94,44097,12.5,72146.5,-7.29,-8.55,-8.51,0,*56
1507252066.13,44098,12.5,72178.3,-7.29,-8.55,-8.55,0,*5D
1507252067.32,44099,12.5,72176.3,-7.29,-8.29,-8.25,0,*50
1507252068.54,44100,12.5,72178.0,-7.31,-8.45,-8.45,0,*54
1507252069.73,44101,12.5,72182.8,-7.29,-8.29,-8.29,0,*5C
1507252070.95,44102,12.5,72158.3,-7.31,-8.29,-8.21,0,*5E
1507252072.17,44103,12.5,72182.3,-7.31,-8.21,-8.21,0,*57
1507252073.36,44104,12.5,72174.8,-7.29,-8.17,-8.17,0,*59
1507252074.58,44105,12.5,72176.0,-7.29,-8.11,-8.17,0,*5E
1507252075.82,44106,12.5,72182.5,-7.29,-8.11,-8.11,0,*5B
1507252077.07,44107,12.5,72184.8,-7.29,-8.11,-8.11,0,*5A
1507252078.31,44108,12.5,72214.0,-7.29,-8.11,-8.11,0,*55
1507252079.58,44109,12.5,72204.3,-7.27,-8.03,-7.95,0,*5A
1507252080.84,44110,12.5,72236.0,-7.27,-7.95,-7.95,0,*52
1507252082.11,44111,12.5,72238.8,-7.27,-7.91,-7.95,0,*57
1507252083.35,44112,12.5,72204.5,-7.25,-7.95,-8.03,0,*52
1507252084.59,44113,12.5,72218.3,-7.25,-8.03,-7.95,0,*53
1507252085.84,44114,12.5,72236.8,-7.25,-7.91,-7.91,0,*54
1507252087.11,44115,12.5,72226.0,-7.27,-7.95,-7.95,0,*57
1507252088.36,44116,12.5,72228.3,-7.25,-7.95,-8.07,0,*52
1507252089.6,44117,12.5,72230.0,-7.25,-7.91,-7.95,0,*53
1507252090.85,44118,12.5,72212.3,-7.25,-7.95,-7.91,0,*5C
1507252092.09,44119,12.5,72222.0,-7.25,-7.91,-7.91,0,*59
1507252093.34,44120,12.5,72214.5,-7.25,-7.95,-7.95,0,*53
1507252094.58,44121,12.5,72226.0,-7.25,-7.95,-8.03,0,*52
1507252095.83,44122,12.5,72208.3,-7.23,-7.91,-7.99,0,*5F
1507252097.07,44123,12.5,72218.3,-7.23,-7.99,-8.03,0,*5A
1507252098.31,44124,12.5,72228.0,-7.23,-7.99,-7.99,0,*51
1507252099.56,44125,12.5,72238.0,-7.23,-7.91,-7.91,0,*50
1507252100.8,44126,12.5,72252.8,-7.23,-7.99,-8.03,0,*5F
1507252102.0,44127,12.5,72268.5,-7.23,-8.17,-8.21,0,*57
1507252103.2,44128,12.5,72252.5,-7.23,-8.41,-8.45,0,*59
1507252104.42,44129,12.5,72252.0,-7.21,-8.45,-8.45,0,*5E
1507252105.61,44130,12.5,72252.0,-7.23,-8.33,-8.33,0,*54
1507252106.8,44131,12.5,72234.8,-7.23,-8.29,-8.21,0,*5D
1507252108.05,44132,12.5,72236.3,-7.25,-8.11,-8.11,0,*50
1507252109.24,44133,12.5,72256.3,-7.25,-8.33,-8.33,0,*51
1507252110.43,44134,12.5,72278.5,-7.25,-8.33,-8.25,0,*51
1507252111.63,44135,12.5,72274.8,-7.25,-8.25,-8.25,0,*57